iso_date,epoch_date,Year,Hour,Min,DOY,POS_DOY,Lat,Lon,BP,Ts,Ta,has_bp,has_ts,has_ta,BuoyID,Buoy_Type,Buoy_Owner,Logistics,Hemisphere
2020-02-03T00:00:00Z,1580688000,2020,0,0,34.0,34.0,-77.518,-162.556,-999.00,-0.47,-999.0,no,yes,no,300234068059040,SVPGHI,AOML,LAURA_BASSI,South
2020-02-03T01:59:57Z,1580695197,2020,2,0,34.0833,34.0833,-77.519,-162.539,-999.00,-0.48,-999.0,no,yes,no,300234068059040,SVPGHI,AOML,LAURA_BASSI,South
2020-02-03T03:00:00Z,1580698800,2020,3,0,34.125,34.125,-77.514,-162.547,-999.00,-0.48,-999.0,no,yes,no,300234068059040,SVPGHI,AOML,LAURA_BASSI,South
2020-02-03T04:00:02Z,1580702403,2020,4,0,34.1667,34.1667,-77.51,-162.562,-999.00,-0.47,-999.0,no,yes,no,300234068059040,SVPGHI,AOML,LAURA_BASSI,South
2020-02-03T04:59:57Z,1580705997,2020,5,0,34.2083,34.2083,-77.506,-162.583,-999.00,-0.46,-999.0,no,yes,no,300234068059040,SVPGHI,AOML,LAURA_BASSI,South
2020-02-03T06:00:00Z,1580709600,2020,6,0,34.25,34.25,-77.504,-162.611,-999.00,-0.47,-999.0,no,yes,no,300234068059040,SVPGHI,AOML,LAURA_BASSI,South
2020-02-03T07:00:02Z,1580713203,2020,7,0,34.2917,34.2917,-77.503,-162.638,-999.00,-0.47,-999.0,no,yes,no,300234068059040,SVPGHI,AOML,LAURA_BASSI,South
2020-02-03T07:59:57Z,1580716797,2020,8,0,34.3333,34.3333,-77.503,-162.664,-999.00,-0.47,-999.0,no,yes,no,300234068059040,SVPGHI,AOML,LAURA_BASSI,South
2020-02-03T09:00:00Z,1580720400,2020,9,0,34.375,34.375,-77.504,-162.693,-999.00,-0.48,-999.0,no,yes,no,300234068059040,SVPGHI,AOML,LAURA_BASSI,South
2020-02-03T10:00:02Z,1580724003,2020,10,0,34.4167,34.4167,-77.506,-162.715,-999.00,-0.47,-999.0,no,yes,no,300234068059040,SVPGHI,AOML,LAURA_BASSI,South
2020-02-03T10:59:57Z,1580727597,2020,11,0,34.4583,34.4583,-77.509,-162.729,-999.00,-0.48,-999.0,no,yes,no,300234068059040,SVPGHI,AOML,LAURA_BASSI,South
2020-02-03T12:00:00Z,1580731200,2020,12,0,34.5,34.5,-77.512,-162.738,-999.00,-0.49,-999.0,no,yes,no,300234068059040,SVPGHI,AOML,LAURA_BASSI,South
2020-02-03T13:00:02Z,1580734803,2020,13,0,34.5417,34.5417,-77.512,-162.757,-999.00,-1.09,-999.0,no,yes,no,300234068059040,SVPGHI,AOML,LAURA_BASSI,South
2020-02-03T13:59:57Z,1580738397,2020,14,0,34.5833,34.5833,-77.509,-162.786,-999.00,-0.7,-999.0,no,yes,no,300234068059040,SVPGHI,AOML,LAURA_BASSI,South
2020-02-03T15:00:00Z,1580742000,2020,15,0,34.625,34.625,-77.505,-162.82,-999.00,-0.84,-999.0,no,yes,no,300234068059040,SVPGHI,AOML,LAURA_BASSI,South
2020-02-03T16:00:02Z,1580745603,2020,16,0,34.6667,34.6667,-77.498,-162.855,-999.00,-0.63,-999.0,no,yes,no,300234068059040,SVPGHI,AOML,LAURA_BASSI,South
2020-02-03T16:59:57Z,1580749197,2020,17,0,34.7083,34.7083,-77.492,-162.904,-999.00,-0.58,-999.0,no,yes,no,300234068059040,SVPGHI,AOML,LAURA_BASSI,South
2020-02-03T18:00:00Z,1580752800,2020,18,0,34.75,34.75,-77.487,-162.961,-999.00,-0.66,-999.0,no,yes,no,300234068059040,SVPGHI,AOML,LAURA_BASSI,South
2020-02-03T19:00:02Z,1580756403,2020,19,0,34.7917,34.7917,-77.485,-163.016,-999.00,-0.78,-999.0,no,yes,no,300234068059040,SVPGHI,AOML,LAURA_BASSI,South
2020-02-03T19:59:57Z,1580759997,2020,20,0,34.8333,34.8333,-77.484,-163.069,-999.00,-0.97,-999.0,no,yes,no,300234068059040,SVPGHI,AOML,LAURA_BASSI,South
2020-02-03T21:00:00Z,1580763600,2020,21,0,34.875,34.875,-77.485,-163.106,-999.00,-0.61,-999.0,no,yes,no,300234068059040,SVPGHI,AOML,LAURA_BASSI,South
2020-02-03T22:00:02Z,1580767203,2020,22,0,34.9167,34.9167,-77.484,-163.137,-999.00,-0.54,-999.0,no,yes,no,300234068059040,SVPGHI,AOML,LAURA_BASSI,South
2020-02-03T22:59:57Z,1580770797,2020,23,0,34.9583,34.9583,-77.487,-163.165,-999.00,-0.47,-999.0,no,yes,no,300234068059040,SVPGHI,AOML,LAURA_BASSI,South
2020-02-04T00:00:00Z,1580774400,2020,0,0,35.0,35.0,-77.49,-163.183,-999.00,-0.44,-999.0,no,yes,no,300234068059040,SVPGHI,AOML,LAURA_BASSI,South
2020-02-04T01:00:02Z,1580778003,2020,1,0,35.0417,35.0417,-77.493,-163.203,-999.00,-0.46,-999.0,no,yes,no,300234068059040,SVPGHI,AOML,LAURA_BASSI,South
2020-02-04T01:59:57Z,1580781597,2020,2,0,35.0833,35.0833,-77.497,-163.198,-999.00,-0.43,-999.0,no,yes,no,300234068059040,SVPGHI,AOML,LAURA_BASSI,South
2020-02-04T03:00:00Z,1580785200,2020,3,0,35.125,35.125,-77.499,-163.204,-999.00,-0.41,-999.0,no,yes,no,300234068059040,SVPGHI,AOML,LAURA_BASSI,South
2020-02-04T04:00:02Z,1580788803,2020,4,0,35.1667,35.1667,-77.501,-163.206,-999.00,-0.4,-999.0,no,yes,no,300234068059040,SVPGHI,AOML,LAURA_BASSI,South
2020-02-04T04:59:57Z,1580792397,2020,5,0,35.2083,35.2083,-77.5,-163.218,-999.00,-0.41,-999.0,no,yes,no,300234068059040,SVPGHI,AOML,LAURA_BASSI,South
2020-02-04T06:00:00Z,1580796000,2020,6,0,35.25,35.25,-77.497,-163.235,-999.00,-0.42,-999.0,no,yes,no,300234068059040,SVPGHI,AOML,LAURA_BASSI,South
2020-02-04T07:00:02Z,1580799603,2020,7,0,35.2917,35.2917,-77.496,-163.255,-999.00,-0.45,-999.0,no,yes,no,300234068059040,SVPGHI,AOML,LAURA_BASSI,South
2020-02-04T07:59:57Z,1580803197,2020,8,0,35.3333,35.3333,-77.497,-163.291,-999.00,-0.47,-999.0,no,yes,no,300234068059040,SVPGHI,AOML,LAURA_BASSI,South
2020-02-04T09:00:00Z,1580806800,2020,9,0,35.375,35.375,-77.5,-163.327,-999.00,-0.47,-999.0,no,yes,no,300234068059040,SVPGHI,AOML,LAURA_BASSI,South
2020-02-04T10:00:02Z,1580810403,2020,10,0,35.4167,35.4167,-77.505,-163.348,-999.00,-0.49,-999.0,no,yes,no,300234068059040,SVPGHI,AOML,LAURA_BASSI,South
2020-02-04T10:59:57Z,1580813997,2020,11,0,35.4583,35.4583,-77.509,-163.364,-999.00,-0.49,-999.0,no,yes,no,300234068059040,SVPGHI,AOML,LAURA_BASSI,South
2020-02-04T12:00:00Z,1580817600,2020,12,0,35.5,35.5,-77.513,-163.377,-999.00,-0.51,-999.0,no,yes,no,300234068059040,SVPGHI,AOML,LAURA_BASSI,South
2020-02-04T13:00:02Z,1580821203,2020,13,0,35.5417,35.5417,-77.516,-163.395,-999.00,-0.51,-999.0,no,yes,no,300234068059040,SVPGHI,AOML,LAURA_BASSI,South
2020-02-04T13:59:57Z,1580824797,2020,14,0,35.5833,35.5833,-77.518,-163.417,-999.00,-0.53,-999.0,no,yes,no,300234068059040,SVPGHI,AOML,LAURA_BASSI,South
2020-02-04T15:00:00Z,1580828400,2020,15,0,35.625,35.625,-77.519,-163.426,-999.00,-0.53,-999.0,no,yes,no,300234068059040,SVPGHI,AOML,LAURA_BASSI,South
2020-02-04T16:00:02Z,1580832003,2020,16,0,35.6667,35.6667,-77.521,-163.444,-999.00,-0.53,-999.0,no,yes,no,300234068059040,SVPGHI,AOML,LAURA_BASSI,South
2020-02-04T16:59:57Z,1580835597,2020,17,0,35.7083,35.7083,-77.522,-163.46,-999.00,-0.54,-999.0,no,yes,no,300234068059040,SVPGHI,AOML,LAURA_BASSI,South
2020-02-04T18:00:00Z,1580839200,2020,18,0,35.75,35.75,-77.523,-163.484,-999.00,-0.54,-999.0,no,yes,no,300234068059040,SVPGHI,AOML,LAURA_BASSI,South
2020-02-04T20:03:59Z,1580846639,2020,20,4,35.8361,35.8361,-77.528,-163.549,-999.00,-0.54,-999.0,no,yes,no,300234068059040,SVPGHI,AOML,LAURA_BASSI,South
2020-02-04T21:01:00Z,1580850060,2020,21,1,35.8757,35.8757,-77.534,-163.569,-999.00,-0.54,-999.0,no,yes,no,300234068059040,SVPGHI,AOML,LAURA_BASSI,South
2020-02-04T22:00:02Z,1580853603,2020,22,0,35.9167,35.9167,-77.541,-163.587,-999.00,-0.53,-999.0,no,yes,no,300234068059040,SVPGHI,AOML,LAURA_BASSI,South
2020-02-04T22:59:57Z,1580857197,2020,23,0,35.9583,35.9583,-77.547,-163.599,-999.00,-0.52,-999.0,no,yes,no,300234068059040,SVPGHI,AOML,LAURA_BASSI,South
2020-02-05T00:00:00Z,1580860800,2020,0,0,36.0,36.0,-77.553,-163.607,-999.00,-0.51,-999.0,no,yes,no,300234068059040,SVPGHI,AOML,LAURA_BASSI,South
2020-02-05T01:00:02Z,1580864403,2020,1,0,36.0417,36.0417,-77.557,-163.602,-999.00,-0.51,-999.0,no,yes,no,300234068059040,SVPGHI,AOML,LAURA_BASSI,South
2020-02-05T01:59:57Z,1580867997,2020,2,0,36.0833,36.0833,-77.559,-163.596,-999.00,-0.51,-999.0,no,yes,no,300234068059040,SVPGHI,AOML,LAURA_BASSI,South
2020-02-05T03:00:00Z,1580871600,2020,3,0,36.125,36.125,-77.563,-163.592,-999.00,-0.51,-999.0,no,yes,no,300234068059040,SVPGHI,AOML,LAURA_BASSI,South
2020-02-05T04:00:02Z,1580875203,2020,4,0,36.1667,36.1667,-77.565,-163.602,-999.00,-0.51,-999.0,no,yes,no,300234068059040,SVPGHI,AOML,LAURA_BASSI,South
2020-02-05T05:00:57Z,1580878858,2020,5,1,36.209,36.209,-77.565,-163.611,-999.00,-0.52,-999.0,no,yes,no,300234068059040,SVPGHI,AOML,LAURA_BASSI,South
2020-02-05T06:00:00Z,1580882400,2020,6,0,36.25,36.25,-77.568,-163.625,-999.00,-0.53,-999.0,no,yes,no,300234068059040,SVPGHI,AOML,LAURA_BASSI,South
2020-02-05T07:00:02Z,1580886003,2020,7,0,36.2917,36.2917,-77.57,-163.64,-999.00,-0.54,-999.0,no,yes,no,300234068059040,SVPGHI,AOML,LAURA_BASSI,South
2020-02-05T08:01:58Z,1580889718,2020,8,2,36.3347,36.3347,-77.573,-163.652,-999.00,-0.55,-999.0,no,yes,no,300234068059040,SVPGHI,AOML,LAURA_BASSI,South
2020-02-05T09:00:00Z,1580893200,2020,9,0,36.375,36.375,-77.577,-163.673,-999.00,-0.53,-999.0,no,yes,no,300234068059040,SVPGHI,AOML,LAURA_BASSI,South
2020-02-05T10:00:02Z,1580896803,2020,10,0,36.4167,36.4167,-77.581,-163.687,-999.00,-0.55,-999.0,no,yes,no,300234068059040,SVPGHI,AOML,LAURA_BASSI,South
2020-02-05T11:00:57Z,1580900458,2020,11,1,36.459,36.459,-77.585,-163.683,-999.00,-0.56,-999.0,no,yes,no,300234068059040,SVPGHI,AOML,LAURA_BASSI,South
2020-02-05T12:00:00Z,1580904000,2020,12,0,36.5,36.5,-77.591,-163.694,-999.00,-0.56,-999.0,no,yes,no,300234068059040,SVPGHI,AOML,LAURA_BASSI,South
2020-02-05T13:00:02Z,1580907603,2020,13,0,36.5417,36.5417,-77.593,-163.689,-999.00,-0.56,-999.0,no,yes,no,300234068059040,SVPGHI,AOML,LAURA_BASSI,South
2020-02-05T13:59:57Z,1580911197,2020,14,0,36.5833,36.5833,-77.593,-163.689,-999.00,-0.59,-999.0,no,yes,no,300234068059040,SVPGHI,AOML,LAURA_BASSI,South
2020-02-05T15:00:00Z,1580914800,2020,15,0,36.625,36.625,-77.591,-163.695,-999.00,-0.58,-999.0,no,yes,no,300234068059040,SVPGHI,AOML,LAURA_BASSI,South
2020-02-05T16:00:02Z,1580918403,2020,16,0,36.6667,36.6667,-77.591,-163.701,-999.00,-0.58,-999.0,no,yes,no,300234068059040,SVPGHI,AOML,LAURA_BASSI,South
2020-02-05T17:00:57Z,1580922058,2020,17,1,36.709,36.709,-77.592,-163.706,-999.00,-0.57,-999.0,no,yes,no,300234068059040,SVPGHI,AOML,LAURA_BASSI,South
2020-02-05T18:00:00Z,1580925600,2020,18,0,36.75,36.75,-77.593,-163.715,-999.00,-0.58,-999.0,no,yes,no,300234068059040,SVPGHI,AOML,LAURA_BASSI,South
2020-02-05T19:00:02Z,1580929203,2020,19,0,36.7917,36.7917,-77.594,-163.729,-999.00,-0.57,-999.0,no,yes,no,300234068059040,SVPGHI,AOML,LAURA_BASSI,South
2020-02-05T20:00:57Z,1580932858,2020,20,1,36.834,36.834,-77.595,-163.74,-999.00,-0.57,-999.0,no,yes,no,300234068059040,SVPGHI,AOML,LAURA_BASSI,South
2020-02-05T21:00:00Z,1580936400,2020,21,0,36.875,36.875,-77.599,-163.752,-999.00,-0.56,-999.0,no,yes,no,300234068059040,SVPGHI,AOML,LAURA_BASSI,South
2020-02-05T22:00:02Z,1580940003,2020,22,0,36.9167,36.9167,-77.604,-163.755,-999.00,-0.54,-999.0,no,yes,no,300234068059040,SVPGHI,AOML,LAURA_BASSI,South
2020-02-05T22:59:57Z,1580943597,2020,23,0,36.9583,36.9583,-77.608,-163.748,-999.00,-0.54,-999.0,no,yes,no,300234068059040,SVPGHI,AOML,LAURA_BASSI,South
2020-02-06T00:00:00Z,1580947200,2020,0,0,37.0,37.0,-77.611,-163.734,-999.00,-0.52,-999.0,no,yes,no,300234068059040,SVPGHI,AOML,LAURA_BASSI,South
2020-02-06T01:00:02Z,1580950803,2020,1,0,37.0417,37.0417,-77.616,-163.723,-999.00,-0.52,-999.0,no,yes,no,300234068059040,SVPGHI,AOML,LAURA_BASSI,South
2020-02-06T01:59:57Z,1580954397,2020,2,0,37.0833,37.0833,-77.61,-163.708,-999.00,-0.73,-999.0,no,yes,no,300234068059040,SVPGHI,AOML,LAURA_BASSI,South
2020-02-06T03:00:00Z,1580958000,2020,3,0,37.125,37.125,-77.602,-163.708,-999.00,-0.86,-999.0,no,yes,no,300234068059040,SVPGHI,AOML,LAURA_BASSI,South
2020-02-06T04:00:02Z,1580961603,2020,4,0,37.1667,37.1667,-77.595,-163.708,-999.00,-0.61,-999.0,no,yes,no,300234068059040,SVPGHI,AOML,LAURA_BASSI,South
2020-02-06T04:59:57Z,1580965197,2020,5,0,37.2083,37.2083,-77.589,-163.704,-999.00,-0.48,-999.0,no,yes,no,300234068059040,SVPGHI,AOML,LAURA_BASSI,South
2020-02-06T06:00:00Z,1580968800,2020,6,0,37.25,37.25,-77.586,-163.7,-999.00,-0.46,-999.0,no,yes,no,300234068059040,SVPGHI,AOML,LAURA_BASSI,South
2020-02-06T07:00:02Z,1580972403,2020,7,0,37.2917,37.2917,-77.587,-163.698,-999.00,-0.45,-999.0,no,yes,no,300234068059040,SVPGHI,AOML,LAURA_BASSI,South
2020-02-06T07:59:57Z,1580975997,2020,8,0,37.3333,37.3333,-77.589,-163.694,-999.00,-0.46,-999.0,no,yes,no,300234068059040,SVPGHI,AOML,LAURA_BASSI,South
2020-02-06T09:00:00Z,1580979600,2020,9,0,37.375,37.375,-77.593,-163.69,-999.00,-0.48,-999.0,no,yes,no,300234068059040,SVPGHI,AOML,LAURA_BASSI,South
2020-02-06T10:00:02Z,1580983203,2020,10,0,37.4167,37.4167,-77.595,-163.684,-999.00,-0.49,-999.0,no,yes,no,300234068059040,SVPGHI,AOML,LAURA_BASSI,South
2020-02-06T10:59:57Z,1580986797,2020,11,0,37.4583,37.4583,-77.596,-163.673,-999.00,-0.68,-999.0,no,yes,no,300234068059040,SVPGHI,AOML,LAURA_BASSI,South
2020-02-06T12:00:00Z,1580990400,2020,12,0,37.5,37.5,-77.59,-163.667,-999.00,-0.61,-999.0,no,yes,no,300234068059040,SVPGHI,AOML,LAURA_BASSI,South
2020-02-06T13:00:02Z,1580994003,2020,13,0,37.5417,37.5417,-77.585,-163.662,-999.00,-1.06,-999.0,no,yes,no,300234068059040,SVPGHI,AOML,LAURA_BASSI,South
2020-02-06T13:59:57Z,1580997597,2020,14,0,37.5833,37.5833,-77.578,-163.657,-999.00,-0.93,-999.0,no,yes,no,300234068059040,SVPGHI,AOML,LAURA_BASSI,South
2020-02-06T15:00:00Z,1581001200,2020,15,0,37.625,37.625,-77.571,-163.651,-999.00,-0.85,-999.0,no,yes,no,300234068059040,SVPGHI,AOML,LAURA_BASSI,South
2020-02-06T16:00:02Z,1581004803,2020,16,0,37.6667,37.6667,-77.566,-163.643,-999.00,-1.21,-999.0,no,yes,no,300234068059040,SVPGHI,AOML,LAURA_BASSI,South
2020-02-06T16:59:57Z,1581008397,2020,17,0,37.7083,37.7083,-77.561,-163.635,-999.00,-0.91,-999.0,no,yes,no,300234068059040,SVPGHI,AOML,LAURA_BASSI,South
2020-02-06T18:00:00Z,1581012000,2020,18,0,37.75,37.75,-77.557,-163.625,-999.00,-0.87,-999.0,no,yes,no,300234068059040,SVPGHI,AOML,LAURA_BASSI,South
2020-02-06T19:00:02Z,1581015603,2020,19,0,37.7917,37.7917,-77.554,-163.609,-999.00,-0.55,-999.0,no,yes,no,300234068059040,SVPGHI,AOML,LAURA_BASSI,South
2020-02-06T19:59:57Z,1581019197,2020,20,0,37.8333,37.8333,-77.551,-163.59,-999.00,-0.71,-999.0,no,yes,no,300234068059040,SVPGHI,AOML,LAURA_BASSI,South
2020-02-06T21:00:00Z,1581022800,2020,21,0,37.875,37.875,-77.548,-163.578,-999.00,-1.46,-999.0,no,yes,no,300234068059040,SVPGHI,AOML,LAURA_BASSI,South
2020-02-06T22:00:02Z,1581026403,2020,22,0,37.9167,37.9167,-77.546,-163.555,-999.00,-1.36,-999.0,no,yes,no,300234068059040,SVPGHI,AOML,LAURA_BASSI,South
2020-02-06T22:59:57Z,1581029997,2020,23,0,37.9583,37.9583,-77.545,-163.519,-999.00,-1.36,-999.0,no,yes,no,300234068059040,SVPGHI,AOML,LAURA_BASSI,South
2020-02-07T00:00:00Z,1581033600,2020,0,0,38.0,38.0,-77.545,-163.492,-999.00,-0.94,-999.0,no,yes,no,300234068059040,SVPGHI,AOML,LAURA_BASSI,South
2020-02-07T01:00:02Z,1581037203,2020,1,0,38.0417,38.0417,-77.546,-163.464,-999.00,-1.23,-999.0,no,yes,no,300234068059040,SVPGHI,AOML,LAURA_BASSI,South
2020-02-07T01:59:57Z,1581040797,2020,2,0,38.0833,38.0833,-77.547,-163.423,-999.00,-0.8,-999.0,no,yes,no,300234068059040,SVPGHI,AOML,LAURA_BASSI,South
2020-02-07T03:00:00Z,1581044400,2020,3,0,38.125,38.125,-77.548,-163.39,-999.00,-1.48,-999.0,no,yes,no,300234068059040,SVPGHI,AOML,LAURA_BASSI,South
2020-02-07T04:00:02Z,1581048003,2020,4,0,38.1667,38.1667,-77.551,-163.357,-999.00,-1.29,-999.0,no,yes,no,300234068059040,SVPGHI,AOML,LAURA_BASSI,South
2020-02-07T04:59:57Z,1581051597,2020,5,0,38.2083,38.2083,-77.554,-163.326,-999.00,-1.71,-999.0,no,yes,no,300234068059040,SVPGHI,AOML,LAURA_BASSI,South
2020-02-07T06:00:00Z,1581055200,2020,6,0,38.25,38.25,-77.559,-163.287,-999.00,-1.21,-999.0,no,yes,no,300234068059040,SVPGHI,AOML,LAURA_BASSI,South
2020-02-07T07:00:02Z,1581058803,2020,7,0,38.2917,38.2917,-77.565,-163.266,-999.00,-0.88,-999.0,no,yes,no,300234068059040,SVPGHI,AOML,LAURA_BASSI,South
2020-02-07T07:59:57Z,1581062397,2020,8,0,38.3333,38.3333,-77.57,-163.247,-999.00,-0.79,-999.0,no,yes,no,300234068059040,SVPGHI,AOML,LAURA_BASSI,South
2020-02-07T09:00:00Z,1581066000,2020,9,0,38.375,38.375,-77.576,-163.227,-999.00,-0.76,-999.0,no,yes,no,300234068059040,SVPGHI,AOML,LAURA_BASSI,South
2020-02-07T10:00:02Z,1581069603,2020,10,0,38.4167,38.4167,-77.58,-163.208,-999.00,-0.75,-999.0,no,yes,no,300234068059040,SVPGHI,AOML,LAURA_BASSI,South
2020-02-07T10:59:57Z,1581073197,2020,11,0,38.4583,38.4583,-77.584,-163.193,-999.00,-0.76,-999.0,no,yes,no,300234068059040,SVPGHI,AOML,LAURA_BASSI,South
2020-02-07T13:00:02Z,1581080403,2020,13,0,38.5417,38.5417,-77.587,-163.163,-999.00,-0.73,-999.0,no,yes,no,300234068059040,SVPGHI,AOML,LAURA_BASSI,South
2020-02-07T13:59:57Z,1581083997,2020,14,0,38.5833,38.5833,-77.589,-163.158,-999.00,-0.73,-999.0,no,yes,no,300234068059040,SVPGHI,AOML,LAURA_BASSI,South
2020-02-07T15:00:00Z,1581087600,2020,15,0,38.625,38.625,-77.59,-163.155,-999.00,-0.73,-999.0,no,yes,no,300234068059040,SVPGHI,AOML,LAURA_BASSI,South
2020-02-07T16:00:02Z,1581091203,2020,16,0,38.6667,38.6667,-77.595,-163.151,-999.00,-0.74,-999.0,no,yes,no,300234068059040,SVPGHI,AOML,LAURA_BASSI,South
2020-02-07T16:59:57Z,1581094797,2020,17,0,38.7083,38.7083,-77.599,-163.139,-999.00,-0.75,-999.0,no,yes,no,300234068059040,SVPGHI,AOML,LAURA_BASSI,South
2020-02-07T18:00:00Z,1581098400,2020,18,0,38.75,38.75,-77.604,-163.118,-999.00,-0.73,-999.0,no,yes,no,300234068059040,SVPGHI,AOML,LAURA_BASSI,South
2020-02-07T19:00:02Z,1581102003,2020,19,0,38.7917,38.7917,-77.608,-163.098,-999.00,-0.73,-999.0,no,yes,no,300234068059040,SVPGHI,AOML,LAURA_BASSI,South
2020-02-07T19:59:57Z,1581105597,2020,20,0,38.8333,38.8333,-77.611,-163.081,-999.00,-0.72,-999.0,no,yes,no,300234068059040,SVPGHI,AOML,LAURA_BASSI,South
2020-02-07T21:00:00Z,1581109200,2020,21,0,38.875,38.875,-77.613,-163.06,-999.00,-0.7,-999.0,no,yes,no,300234068059040,SVPGHI,AOML,LAURA_BASSI,South
2020-02-07T22:00:02Z,1581112803,2020,22,0,38.9167,38.9167,-77.616,-163.045,-999.00,-0.71,-999.0,no,yes,no,300234068059040,SVPGHI,AOML,LAURA_BASSI,South
2020-02-07T22:59:57Z,1581116397,2020,23,0,38.9583,38.9583,-77.62,-163.031,-999.00,-0.72,-999.0,no,yes,no,300234068059040,SVPGHI,AOML,LAURA_BASSI,South
2020-02-08T00:00:00Z,1581120000,2020,0,0,39.0,39.0,-77.622,-163.011,-999.00,-0.66,-999.0,no,yes,no,300234068059040,SVPGHI,AOML,LAURA_BASSI,South
2020-02-08T01:00:02Z,1581123603,2020,1,0,39.0417,39.0417,-77.627,-163.002,-999.00,-0.66,-999.0,no,yes,no,300234068059040,SVPGHI,AOML,LAURA_BASSI,South
2020-02-08T01:59:57Z,1581127197,2020,2,0,39.0833,39.0833,-77.63,-162.973,-999.00,-0.66,-999.0,no,yes,no,300234068059040,SVPGHI,AOML,LAURA_BASSI,South
2020-02-08T03:00:00Z,1581130800,2020,3,0,39.125,39.125,-77.632,-162.959,-999.00,-0.65,-999.0,no,yes,no,300234068059040,SVPGHI,AOML,LAURA_BASSI,South
2020-02-08T04:00:02Z,1581134403,2020,4,0,39.1667,39.1667,-77.635,-162.94,-999.00,-0.66,-999.0,no,yes,no,300234068059040,SVPGHI,AOML,LAURA_BASSI,South
2020-02-08T04:59:57Z,1581137997,2020,5,0,39.2083,39.2083,-77.638,-162.926,-999.00,-0.64,-999.0,no,yes,no,300234068059040,SVPGHI,AOML,LAURA_BASSI,South
2020-02-08T06:00:00Z,1581141600,2020,6,0,39.25,39.25,-77.641,-162.911,-999.00,-0.65,-999.0,no,yes,no,300234068059040,SVPGHI,AOML,LAURA_BASSI,South
2020-02-08T07:00:02Z,1581145203,2020,7,0,39.2917,39.2917,-77.645,-162.895,-999.00,-0.65,-999.0,no,yes,no,300234068059040,SVPGHI,AOML,LAURA_BASSI,South
2020-02-08T07:59:57Z,1581148797,2020,8,0,39.3333,39.3333,-77.648,-162.876,-999.00,-0.65,-999.0,no,yes,no,300234068059040,SVPGHI,AOML,LAURA_BASSI,South
2020-02-08T09:00:00Z,1581152400,2020,9,0,39.375,39.375,-77.652,-162.854,-999.00,-0.65,-999.0,no,yes,no,300234068059040,SVPGHI,AOML,LAURA_BASSI,South
2020-02-08T10:00:02Z,1581156003,2020,10,0,39.4167,39.4167,-77.654,-162.833,-999.00,-0.72,-999.0,no,yes,no,300234068059040,SVPGHI,AOML,LAURA_BASSI,South
2020-02-08T10:59:57Z,1581159597,2020,11,0,39.4583,39.4583,-77.655,-162.817,-999.00,-0.67,-999.0,no,yes,no,300234068059040,SVPGHI,AOML,LAURA_BASSI,South
2020-02-08T12:00:00Z,1581163200,2020,12,0,39.5,39.5,-77.655,-162.788,-999.00,-0.67,-999.0,no,yes,no,300234068059040,SVPGHI,AOML,LAURA_BASSI,South
2020-02-08T13:00:02Z,1581166803,2020,13,0,39.5417,39.5417,-77.655,-162.785,-999.00,-0.67,-999.0,no,yes,no,300234068059040,SVPGHI,AOML,LAURA_BASSI,South
2020-02-08T13:59:57Z,1581170397,2020,14,0,39.5833,39.5833,-77.655,-162.774,-999.00,-0.68,-999.0,no,yes,no,300234068059040,SVPGHI,AOML,LAURA_BASSI,South
2020-02-08T15:00:00Z,1581174000,2020,15,0,39.625,39.625,-77.654,-162.761,-999.00,-0.7,-999.0,no,yes,no,300234068059040,SVPGHI,AOML,LAURA_BASSI,South
2020-02-08T16:00:02Z,1581177603,2020,16,0,39.6667,39.6667,-77.655,-162.748,-999.00,-0.7,-999.0,no,yes,no,300234068059040,SVPGHI,AOML,LAURA_BASSI,South
2020-02-08T16:59:57Z,1581181197,2020,17,0,39.7083,39.7083,-77.654,-162.738,-999.00,-0.69,-999.0,no,yes,no,300234068059040,SVPGHI,AOML,LAURA_BASSI,South
2020-02-08T18:00:00Z,1581184800,2020,18,0,39.75,39.75,-77.655,-162.729,-999.00,-0.67,-999.0,no,yes,no,300234068059040,SVPGHI,AOML,LAURA_BASSI,South
2020-02-08T19:00:02Z,1581188403,2020,19,0,39.7917,39.7917,-77.656,-162.712,-999.00,-0.66,-999.0,no,yes,no,300234068059040,SVPGHI,AOML,LAURA_BASSI,South
2020-02-08T19:59:57Z,1581191997,2020,20,0,39.8333,39.8333,-77.658,-162.701,-999.00,-0.6,-999.0,no,yes,no,300234068059040,SVPGHI,AOML,LAURA_BASSI,South
2020-02-08T21:00:00Z,1581195600,2020,21,0,39.875,39.875,-77.661,-162.683,-999.00,-0.6,-999.0,no,yes,no,300234068059040,SVPGHI,AOML,LAURA_BASSI,South
2020-02-08T22:00:02Z,1581199203,2020,22,0,39.9167,39.9167,-77.663,-162.659,-999.00,-0.54,-999.0,no,yes,no,300234068059040,SVPGHI,AOML,LAURA_BASSI,South
2020-02-08T22:59:57Z,1581202797,2020,23,0,39.9583,39.9583,-77.664,-162.632,-999.00,-0.56,-999.0,no,yes,no,300234068059040,SVPGHI,AOML,LAURA_BASSI,South
2020-02-09T00:00:00Z,1581206400,2020,0,0,40.0,40.0,-77.664,-162.607,-999.00,-0.55,-999.0,no,yes,no,300234068059040,SVPGHI,AOML,LAURA_BASSI,South
2020-02-09T01:00:02Z,1581210003,2020,1,0,40.0417,40.0417,-77.665,-162.582,-999.00,-0.56,-999.0,no,yes,no,300234068059040,SVPGHI,AOML,LAURA_BASSI,South
2020-02-09T01:59:57Z,1581213597,2020,2,0,40.0833,40.0833,-77.664,-162.56,-999.00,-0.54,-999.0,no,yes,no,300234068059040,SVPGHI,AOML,LAURA_BASSI,South
2020-02-09T03:00:00Z,1581217200,2020,3,0,40.125,40.125,-77.662,-162.544,-999.00,-0.56,-999.0,no,yes,no,300234068059040,SVPGHI,AOML,LAURA_BASSI,South
2020-02-09T04:00:02Z,1581220803,2020,4,0,40.1667,40.1667,-77.662,-162.533,-999.00,-0.57,-999.0,no,yes,no,300234068059040,SVPGHI,AOML,LAURA_BASSI,South
2020-02-09T04:59:57Z,1581224397,2020,5,0,40.2083,40.2083,-77.662,-162.521,-999.00,-0.59,-999.0,no,yes,no,300234068059040,SVPGHI,AOML,LAURA_BASSI,South
2020-02-09T06:00:00Z,1581228000,2020,6,0,40.25,40.25,-77.663,-162.507,-999.00,-0.61,-999.0,no,yes,no,300234068059040,SVPGHI,AOML,LAURA_BASSI,South
2020-02-09T07:05:57Z,1581231957,2020,7,6,40.2958,40.2958,-90.0,-180.0,-999.00,-0.63,-999.0,no,yes,no,300234068059040,SVPGHI,AOML,LAURA_BASSI,South
2020-02-09T07:58:56Z,1581235137,2020,7,59,40.3326,40.3326,-77.668,-162.477,-999.00,-0.64,-999.0,no,yes,no,300234068059040,SVPGHI,AOML,LAURA_BASSI,South
2020-02-09T07:59:57Z,1581235197,2020,8,0,40.3333,40.3333,-77.668,-162.476,-999.00,-0.63,-999.0,no,yes,no,300234068059040,SVPGHI,AOML,LAURA_BASSI,South
2020-02-09T09:00:00Z,1581238800,2020,9,0,40.375,40.375,-77.669,-162.457,-999.00,-0.78,-999.0,no,yes,no,300234068059040,SVPGHI,AOML,LAURA_BASSI,South
2020-02-09T10:00:02Z,1581242403,2020,10,0,40.4167,40.4167,-77.671,-162.436,-999.00,-0.85,-999.0,no,yes,no,300234068059040,SVPGHI,AOML,LAURA_BASSI,South
2020-02-09T10:59:57Z,1581245997,2020,11,0,40.4583,40.4583,-77.673,-162.416,-999.00,-1.39,-999.0,no,yes,no,300234068059040,SVPGHI,AOML,LAURA_BASSI,South
2020-02-09T12:00:00Z,1581249600,2020,12,0,40.5,40.5,-77.671,-162.381,-999.00,-0.99,-999.0,no,yes,no,300234068059040,SVPGHI,AOML,LAURA_BASSI,South
2020-02-09T13:00:02Z,1581253203,2020,13,0,40.5417,40.5417,-77.671,-162.364,-999.00,-0.84,-999.0,no,yes,no,300234068059040,SVPGHI,AOML,LAURA_BASSI,South
2020-02-09T13:59:57Z,1581256797,2020,14,0,40.5833,40.5833,-77.669,-162.347,-999.00,-0.88,-999.0,no,yes,no,300234068059040,SVPGHI,AOML,LAURA_BASSI,South
2020-02-09T15:00:00Z,1581260400,2020,15,0,40.625,40.625,-77.667,-162.328,-999.00,-0.89,-999.0,no,yes,no,300234068059040,SVPGHI,AOML,LAURA_BASSI,South